When you browse on this site, cookies collect data to enhance your experience and personalize the content and advertising you see.
Visit our Privacy Policy to learn more. By continuing to use the site, you agree to this use of cookies and data.

Hourly Weather Córdoba

Today, 15 August, Saturday

Time Temperature Precipitation Wind Pressure Humidity
00:00 +8°C° 0 mm 3 mps 723 mmHg 33%
01:00 +8°C° 0 mm 2 mps 723 mmHg 32%
02:00 +7°C° 0 mm 2 mps 723 mmHg 31%
03:00 +8°C° 0 mm 1 mps 723 mmHg 30%
04:00 +8°C° 0 mm 1 mps 722 mmHg 29%
05:00 +7°C° 0 mm 1 mps 722 mmHg 29%
06:00 +8°C° 0 mm 1 mps 722 mmHg 27%
07:00 +9°C° 0 mm 1 mps 723 mmHg 26%
08:00 +9°C° 0 mm 0 mps 723 mmHg 25%
09:00 +12°C° 0 mm 1 mps 723 mmHg 21%
10:00 +14°C° 0 mm 2 mps 724 mmHg 17%
11:00 +17°C° 0 mm 3 mps 724 mmHg 13%
12:00 +17°C° 0 mm 3 mps 723 mmHg 13%
13:00 +18°C° 0 mm 3 mps 723 mmHg 12%
14:00 +19°C° 0 mm 3 mps 723 mmHg 12%
15:00 +19°C° 0 mm 3 mps 723 mmHg 13%
16:00 +18°C° 0 mm 3 mps 723 mmHg 14%
17:00 +18°C° 0 mm 2 mps 722 mmHg 15%
18:00 +15°C° 0 mm 2 mps 723 mmHg 18%
19:00 +13°C° 0 mm 2 mps 723 mmHg 21%
20:00 +11°C° 0 mm 1 mps 724 mmHg 24%
21:00 +10°C° 0 mm 1 mps 724 mmHg 26%
22:00 +9°C° 0 mm 1 mps 725 mmHg 27%
23:00 +8°C° 0 mm 1 mps 725 mmHg 28%

Tomorrow, 16 August, Sunday

Time Temperature Precipitation Wind Pressure Humidity
00:00 +8°C° 0 mm 1 mps 725 mmHg 29%
01:00 +8°C° 0 mm 1 mps 725 mmHg 30%
02:00 +8°C° 0 mm 1 mps 725 mmHg 31%
03:00 +7°C° 0 mm 1 mps 725 mmHg 32%
04:00 +7°C° 0 mm 1 mps 724 mmHg 33%
05:00 +7°C° 0 mm 1 mps 724 mmHg 35%
06:00 +7°C° 0 mm 2 mps 724 mmHg 34%
07:00 +7°C° 0 mm 2 mps 724 mmHg 33%
08:00 +8°C° 0 mm 2 mps 724 mmHg 32%
09:00 +11°C° 0 mm 3 mps 725 mmHg 29%
10:00 +14°C° 0 mm 4 mps 725 mmHg 25%
11:00 +18°C° 0 mm 4 mps 725 mmHg 22%
12:00 +19°C° 0 mm 5 mps 724 mmHg 21%
13:00 +20°C° 0 mm 5 mps 724 mmHg 21%
14:00 +21°C° 0 mm 5 mps 723 mmHg 20%
15:00 +20°C° 0 mm 5 mps 723 mmHg 22%
16:00 +20°C° 0 mm 5 mps 722 mmHg 23%
17:00 +19°C° 0 mm 5 mps 722 mmHg 24%
18:00 +17°C° 0 mm 4 mps 722 mmHg 29%
19:00 +14°C° 0 mm 3 mps 722 mmHg 33%
20:00 +12°C° 0 mm 3 mps 722 mmHg 37%
21:00 +12°C° 0 mm 3 mps 722 mmHg 37%
22:00 +11°C° 0 mm 3 mps 723 mmHg 38%
23:00 +11°C° 0 mm 3 mps 723 mmHg 38%

Day after tomorrow, 17 August, Monday

Time Temperature Precipitation Wind Pressure Humidity
00:00 +11°C° 0 mm 3 mps 723 mmHg 38%
01:00 +12°C° 0 mm 2 mps 723 mmHg 39%
02:00 +12°C° 0 mm 2 mps 723 mmHg 39%
03:00 +10°C° 0 mm 2 mps 722 mmHg 41%
04:00 +10°C° 0 mm 2 mps 722 mmHg 42%
05:00 +10°C° 0 mm 1 mps 722 mmHg 43%
06:00 +11°C° 0 mm 1 mps 722 mmHg 42%
07:00 +11°C° 0 mm 1 mps 723 mmHg 41%
08:00 +12°C° 0 mm 1 mps 723 mmHg 40%
09:00 +15°C° 0 mm 2 mps 723 mmHg 35%
10:00 +17°C° 0 mm 2 mps 723 mmHg 29%
11:00 +20°C° 0 mm 3 mps 723 mmHg 24%
12:00 +21°C° 0 mm 3 mps 722 mmHg 23%
13:00 +22°C° 0 mm 4 mps 721 mmHg 21%
14:00 +25°C° 0 mm 5 mps 720 mmHg 19%
15:00 +23°C° 0 mm 5 mps 720 mmHg 21%
16:00 +22°C° 0 mm 5 mps 719 mmHg 23%
17:00 +21°C° 0 mm 5 mps 718 mmHg 25%
18:00 +19°C° 0 mm 5 mps 718 mmHg 30%
19:00 +17°C° 0 mm 4 mps 718 mmHg 35%
20:00 +13°C° 0 mm 4 mps 718 mmHg 40%
21:00 +13°C° 0 mm 4 mps 718 mmHg 40%
22:00 +13°C° 0 mm 4 mps 718 mmHg 41%
23:00 +13°C° 0 mm 4 mps 718 mmHg 41%

18 August, Tuesday

Time Temperature Precipitation Wind Pressure Humidity
00:00 +12°C° 0 mm 4 mps 717 mmHg 41%
01:00 +12°C° 0 mm 3 mps 717 mmHg 41%
02:00 +12°C° 0 mm 3 mps 717 mmHg 40%
03:00 +12°C° 0 mm 3 mps 716 mmHg 41%
04:00 +11°C° 0 mm 3 mps 716 mmHg 42%
05:00 +12°C° 0 mm 2 mps 715 mmHg 43%
06:00 +13°C° 0 mm 2 mps 716 mmHg 41%
07:00 +13°C° 0 mm 2 mps 716 mmHg 40%
08:00 +14°C° 0 mm 1 mps 716 mmHg 38%
09:00 +16°C° 0 mm 3 mps 716 mmHg 33%
10:00 +19°C° 0 mm 5 mps 717 mmHg 29%
11:00 +21°C° 0 mm 6 mps 717 mmHg 25%
12:00 +20°C° 0 mm 7 mps 717 mmHg 26%
13:00 +20°C° 0 mm 8 mps 717 mmHg 27%
14:00 +18°C° 0 mm 8 mps 717 mmHg 28%
15:00 +17°C° 0 mm 8 mps 717 mmHg 29%
16:00 +16°C° 0 mm 7 mps 717 mmHg 29%
17:00 +15°C° 0 mm 7 mps 718 mmHg 30%
18:00 +14°C° 0 mm 6 mps 719 mmHg 34%
19:00 +11°C° 0 mm 6 mps 720 mmHg 37%
20:00 +10°C° 0 mm 5 mps 721 mmHg 41%
21:00 +9°C° 0 mm 6 mps 722 mmHg 36%
22:00 +9°C° 0 mm 6 mps 723 mmHg 31%
23:00 +8°C° 0 mm 6 mps 724 mmHg 26%

19 August, Wednesday

Time Temperature Precipitation Wind Pressure Humidity
00:00 +8°C° 0 mm 6 mps 724 mmHg 26%
01:00 +7°C° 0 mm 6 mps 725 mmHg 26%
02:00 +5°C° 0 mm 6 mps 725 mmHg 26%
03:00 +6°C° 0 mm 5 mps 725 mmHg 27%
04:00 +6°C° 0 mm 5 mps 726 mmHg 28%
05:00 +5°C° 0 mm 5 mps 726 mmHg 29%
06:00 +6°C° 0 mm 5 mps 727 mmHg 28%
07:00 +6°C° 0 mm 5 mps 727 mmHg 28%
08:00 +5°C° 0 mm 6 mps 728 mmHg 28%
09:00 +7°C° 0 mm 6 mps 729 mmHg 27%
10:00 +8°C° 0 mm 6 mps 729 mmHg 27%
11:00 +9°C° 0 mm 6 mps 730 mmHg 26%
12:00 +9°C° 0 mm 6 mps 729 mmHg 25%
13:00 +10°C° 0 mm 6 mps 729 mmHg 24%
14:00 +10°C° 0 mm 5 mps 729 mmHg 23%
15:00 +10°C° 0 mm 6 mps 729 mmHg 23%
16:00 +9°C° 0 mm 6 mps 729 mmHg 23%
17:00 +9°C° 0 mm 6 mps 729 mmHg 24%
18:00 +7°C° 0 mm 5 mps 730 mmHg 27%
19:00 +5°C° 0 mm 5 mps 731 mmHg 29%
20:00 +4°C° 0 mm 4 mps 731 mmHg 32%
21:00 +3°C° 0 mm 4 mps 732 mmHg 33%
22:00 +3°C° 0 mm 4 mps 732 mmHg 33%
23:00 +1°C° 0 mm 4 mps 733 mmHg 34%

20 August, Thursday

Time Temperature Precipitation Wind Pressure Humidity
00:00 +1°C° 0 mm 4 mps 733 mmHg 35%
01:00 0°C° 0 mm 4 mps 733 mmHg 35%
02:00 +1°C° 0 mm 3 mps 733 mmHg 36%
03:00 0°C° 0 mm 3 mps 733 mmHg 38%
04:00 0°C° 0 mm 3 mps 733 mmHg 39%
05:00 -1°C° 0 mm 2 mps 733 mmHg 40%
06:00 0°C° 0 mm 3 mps 733 mmHg 38%
07:00 +1°C° 0 mm 3 mps 734 mmHg 37%
08:00 +2°C° 0 mm 3 mps 734 mmHg 35%
09:00 +3°C° 0 mm 4 mps 734 mmHg 30%
10:00 +5°C° 0 mm 4 mps 734 mmHg 25%
11:00 +7°C° 0 mm 5 mps 735 mmHg 20%
12:00 +8°C° 0 mm 4 mps 734 mmHg 18%
13:00 +10°C° 0 mm 4 mps 733 mmHg 16%
14:00 +11°C° 0 mm 4 mps 733 mmHg 13%
15:00 +10°C° 0 mm 4 mps 733 mmHg 13%
16:00 +10°C° 0 mm 4 mps 732 mmHg 13%
17:00 +10°C° 0 mm 3 mps 732 mmHg 14%
18:00 +7°C° 0 mm 2 mps 732 mmHg 17%
19:00 +6°C° 0 mm 1 mps 733 mmHg 21%
20:00 +3°C° 0 mm 0 mps 733 mmHg 25%
21:00 +3°C° 0 mm 1 mps 733 mmHg 26%
22:00 +3°C° 0 mm 1 mps 733 mmHg 26%
23:00 +3°C° 0 mm 1 mps 734 mmHg 27%
Show more